Location: Newark
(40.3500°N, 15.2333°E)
Time: 19:26:56
(UTC+00:00)

Vanguard 1 - Pass Details

Date: 31 January 2020
Orbit: 650 x 3833 km, 34.2° (Epoch: 19 February)

Event Time Altitude Azimuth Distance (km) Brightness Sun altitude
Rises 17:18:55 0° 266° (W) 2,987 14.5 -12.4°
Reaches altitude 10° 17:21:21 10° 255° (WSW) 2,043 13.2 -12.8°
Maximum altitude 17:25:17 32° 191° (S) 1,182 10.7 -13.5°
Drops below altitude 10° 17:30:00 10° 129° (SE) 2,463 11.7 -14.4°
Enters shadow 17:30:35 - 126° (SE) 2,685 11.9 -14.5°
Sets 17:33:14 0° 119° (ESE) 3,728 - -15.0°
